THORAD AGENA D DEB, 4685

Orbit data source: Space-Track

THORAD AGENA D DEB, 4685 is space debris in SSO originally from a launch on Wed, 08 Apr 1970 UTC launched from the Air Force Western Test Range (AFWTR). Debris objects in space refer to the collection of defunct objects orbiting the Earth. Examples of debris include non-operational satellites, rocket bodies, and fragments generated from explosions, collisions, or faulty payload assembly.

Loading next visibility...
Identifier
4685, 1970-025BJ
Orbit
SSO
Country
Flag of USUS
Related business
Manufacturer
Unknown
Mission
Spacecraft
Bus & Motor
Unknown
Mass
Unknown
Launch date (UTC)
1970-04-08 (56 years ago)
Launch vehicle
Unknown
Launch site
Air Force Western Test Range (AFWTR)
Object type
Payload
Rocket body
Debris
Shape & HBR
Unknown shape, 0.2 m
Radar Cross Section
Medium (>0.1 m² and <1 m²)

Expand to show TLE details & history
Last TLE update: 12 hours ago

TLE from 12 hours ago
0 THORAD AGENA D DEB
1  4685U 70025BJ  26063.17463542  .00000392  00000-0  61479-3 0  9990
2  4685  99.9297 147.2958 0054557 189.3566 200.5986 13.56535888755278
Epoch: 2026-03-04T04:11Z
TLE epoch observation values (Epoch: 2026-03-04T04:11:28.500Z)
Latitude
29.2951°
Longitude
-83.12382°
Altitude
1,089.799 km
Speed
7.291 km/s
True Right ascension
09h 26m 45s
True Declination
29° 09' 18"
Sunlit
Object was in full shadow at epoch
Visualization orbit readout
Latitude
Unknown
Longitude
Unknown
Altitude
Unknown
Speed
Unknown
Apparent Right ascension
Unknown
Apparent Declination
Unknown
Sunlit
N/A
Visualization observer readout
Local Sidereal Time
19:45:50
Azimuth
Unknown
Elevation
Unknown
Doppler factor
Unknown
Orbital elements
Apogee altitude
1,086.114 km
Perigee altitude
1,005.111 km
Semi-major axis
7,423.75 km
Eccentricity
0.00546
Inclination
99.9297°
RAAN
147.2958°
Arg. of periapsis
189.3566°
True anomaly
200.38005°
Mean anomaly
200.5986°
Eccentric anomaly
200.48918°
Mean motion
3.39319 °/min
Orbital period
106.09 mins
BSTAR
0.00061479

Documentation

Showing up to 5 results
|